CAPE
0 0 0 0 0 0 0 0 0 0 0 0 0 0 96 213 105 156 202 57 17 37 41 6 0 0 1 16 15 7 4 49 70 71 131 151 186 267 358 389 120 322 494 358
0 0 0 0 0 0 0 0 0 0 0 0 0 0 80 193 76 345 252 96 25 20 42 2 0 0 0 0 12 0 24 12 99 114 163 171 177 251 359 406 506 618 620 469
0 0 0 0 0 0 0 0 0 0 0 16 18 19 123 327 170 287 313 184 43 24 28 24 0 0 0 0 0 10 0 28 110 107 149 137 151 228 379 387 453 732 685 547
0 0 0 0 0 0 0 0 0 0 0 0 5 0 47 236 177 129 258 355 154 31 31 0 3 0 0 27 7 1 11 20 88 115 145 166 170 246 377 150 400 659 831 534
0 0 0 0 0 0 0 0 0 0 0 0 0 0 0 120 190 168 162 253 349 136 50 14 0 0 6 0 0 33 3 14 6 75 130 140 154 233 287 307 371 590 863 906
0 0 0 0 0 0 0 0 0 0 0 0 0 0 0 0 59 78 74 96 224 321 163 30 0 0 0 0 0 0 36 18 12 58 58 83 93 143 168 201 318 442 456 808
0 0 0 0 0 0 0 0 0 0 0 0 0 0 0 0 0 0 0 15 152 358 253 89 1 0 0 0 0 0 21 31 23 2 0 39 40 50 86 90 111 280 373 561
0 0 0 0 0 0 0 0 0 0 0 0 0 0 0 0 0 0 0 0 121 481 345 222 26 0 0 0 0 0 0 0 2 5 0 0 0 0 29 98 198 282 292 473
0 0 0 0 0 0 0 0 0 0 0 0 0 0 0 0 0 0 0 0 43 265 385 216 181 0 3 1 13 0 0 0 0 0 0 0 0 0 0 70 167 240 360 456
0 0 0 0 0 0 0 0 0 0 0 0 0 0 0 0 0 0 0 0 0 8 313 308 171 54 0 0 14 18 0 0 0 0 0 0 0 0 0 12 93 145 263 508
0 0 0 0 0 0 0 0 0 0 0 0 0 0 0 0 0 0 0 0 8 17 110 343 260 95 0 16 0 0 18 0 0 17 34 14 0 0 0 0 9 67 151 354
0 0 0 0 0 0 0 0 0 0 0 0 0 0 0 0 0 0 1 1 24 56 112 253 205 136 47 12 13 0 0 23 0 16 15 34 0 0 0 0 0 0 21 126
0 0 0 0 0 0 0 0 0 0 0 0 0 0 0 0 0 0 0 2 1 76 177 195 227 187 88 17 0 0 0 0 24 18 0 0 0 0 12 0 0 0 0 0
0 0 0 0 0 0 0 0 0 0 0 0 0 0 0 0 0 0 0 0 3 3 2 85 143 100 60 7 11 1 0 0 0 1 24 0 0 0 0 9 0 0 0 0
0 0 0 0 0 0 0 0 0 0 0 0 0 0 0 0 0 0 0 0 0 1 0 0 4 97 104 117 41 2 33 22 11 18 32 0 0 0 0 0 0 0 0 0
0 0 0 0 0 0 0 0 0 0 0 0 0 0 0 0 0 0 0 0 0 1 0 0 0 0 2 2 1 0 14 34 60 35 51 110 52 1 0 0 0 0 0 0
0 0 0 0 0 0 0 0 0 0 0 0 0 0 0 0 0 0 0 0 0 0 0 0 0 0 0 0 0 1 0 49 57 143 126 114 167 167 124 6 0 0 0 0
0 0 0 0 0 0 0 0 0 0 0 0 0 0 0 0 0 0 0 0 0 0 0 0 0 0 0 0 0 0 2 100 102 131 299 216 213 241 250 209 57 0 0 0
0 0 0 0 0 0 0 0 0 0 0 0 0 0 0 0 0 0 0 0 0 0 0 0 0 0 0 0 0 0 2 0 3 21 126 330 442 357 307 345 384 233 46 0
0 0 0 0 0 0 0 0 0 0 0 0 0 0 0 0 0 0 0 0 0 0 0 0 0 0 0 0 0 0 0 0 0 0 1 2 64 301 582 513 475 466 424 271
0 0 0 0 0 0 0 0 0 0 0 0 0 0 0 0 0 0 0 0 0 0 0 0 0 0 0 0 0 0 0 0 0 0 0 2 0 7 72 492 828 604 642 615
0 0 0 0 0 0 0 0 0 0 0 0 0 0 0 0 0 0 0 0 0 0 0 0 0 0 0 0 0 0 0 0 0 0 0 0 0 0 0 27 150 534 1003 964
0 0 0 0 0 0 0 0 0 0 0 0 0 0 0 0 0 0 0 0 0 0 0 0 0 0 0 0 0 0 0 0 0 0 0 0 0 0 0 0 26 158 598 1141
0 0 0 0 0 0 0 0 0 0 0 0 0 0 0 0 1 1 0 0 0 0 0 0 0 0 0 0 0 0 0 0 0 0 0 0 0 0 0 4 2 30 594 1206
0 0 0 0 0 0 0 0 0 0 0 0 1 0 1 2 2 2 0 0 0 0 0 0 0 0 0 0 0 0 0 0 0 0 0 0 0 0 0 0 0 15 151 1056
0 0 0 0 0 0 0 0 0 0 0 0 0 0 5 12 7 5 1 1 1 0 0 0 0 0 0 0 0 0 0 0 2 0 0 0 0 0 0 0 0 0 4 182
CIN
0 0 0 0 0 0 0 0 0 0 0 0 0 0 -49 -103 -154 -127 -90 -125 -122 -97 -79 -178 0 0 -20 -123 -134 -142 -83 -106 -94 -103 -89 -80 -82 -74 -71 -53 -79 -52 -47 -59
0 0 0 0 0 0 0 0 0 0 0 0 0 0 -157 -128 -154 -80 -86 -90 -93 -83 -74 -20 0 0 0 0 -118 -1 -118 -117 -112 -105 -104 -90 -96 -79 -56 -45 -52 -52 -44 -56
0 0 0 0 0 0 0 0 0 0 0 -76 -82 -75 -188 -112 -120 -56 -72 -72 -91 -96 -94 -112 0 0 0 0 0 -133 0 -134 -129 -119 -129 -135 -104 -87 -46 -45 -40 -45 -53 -54
0 0 0 0 0 0 0 0 0 0 0 0 -11 0 -189 -155 -165 -142 -100 -83 -92 -109 -104 0 -112 -3 -37 -201 -50 -28 -149 -138 -138 -125 -157 -96 -85 -54 -54 -51 -48 -41 -45 -59
0 0 0 0 0 0 0 0 0 0 0 0 0 0 0 -234 -202 -210 -195 -145 -111 -144 -131 -178 0 0 -185 0 0 -196 -153 -138 -135 -127 -102 -97 -98 -60 -56 -57 -47 -43 -39 -46
0 0 0 0 0 0 0 0 0 0 0 0 0 0 0 -23 -52 -127 -175 -178 -155 -150 -136 -175 0 0 0 0 0 0 -198 -156 -158 -127 -144 -121 -100 -79 -80 -61 -54 -46 -48 -43
0 0 0 0 0 0 0 0 0 0 0 0 0 0 0 0 0 0 0 -271 -172 -117 -111 -184 -182 -109 0 0 0 0 -196 -211 -187 -86 0 -160 -144 -118 -95 -83 -69 -63 -52 -46
0 0 0 0 0 0 0 0 0 0 0 0 0 0 0 0 0 0 0 0 -287 -135 -148 -119 -65 0 0 0 0 0 0 0 -20 -155 0 0 0 0 -139 -106 -80 -65 -65 -48
0 0 0 0 0 0 0 0 0 0 0 0 0 0 0 0 0 0 0 0 -318 -219 -128 -156 -152 -3 -166 -18 -330 0 0 0 0 0 0 0 0 0 0 -153 -113 -88 -76 -66
0 0 0 0 0 0 0 0 0 0 0 0 0 0 0 0 0 0 0 0 0 -447 -272 -216 -201 -233 0 0 -173 -293 0 0 0 0 0 0 0 0 0 -68 -143 -128 -89 -78
0 0 0 0 0 0 0 0 0 0 0 0 0 0 0 0 0 0 0 0 -309 -519 -465 -302 -238 -240 0 -293 0 0 -269 0 0 -179 -234 -212 0 0 0 0 -55 -168 -128 -91
0 0 0 0 0 0 0 0 0 0 0 0 0 0 0 0 0 0 0 0 -226 -431 -437 -310 -293 -246 -249 -287 -260 0 -4 -235 0 -249 -241 -225 0 0 0 0 0 0 -85 -138
0 0 0 0 0 0 0 0 0 0 0 0 0 0 0 0 0 0 0 0 0 -315 -277 -277 -257 -272 -246 -260 0 0 0 0 -249 -276 0 0 0 0 -139 0 0 0 0 0
0 0 0 0 0 0 0 0 0 0 0 0 0 0 0 0 0 0 0 0 0 0 0 -265 -235 -289 -300 -332 -246 -120 0 0 0 -16 -204 0 0 0 0 -73 0 0 0 0
0 0 0 0 0 0 0 0 0 0 0 0 0 0 0 0 0 0 0 0 0 0 0 0 0 -206 -208 -197 -164 -63 -233 -252 -240 -218 -231 0 0 0 0 0 0 0 0 0
0 0 0 0 0 0 0 0 0 0 0 0 0 0 0 0 0 0 0 0 0 0 0 0 0 0 0 0 0 0 -278 -213 -180 -206 -227 -227 -219 -4 0 0 0 0 0 0
0 0 0 0 0 0 0 0 0 0 0 0 0 0 0 0 0 0 0 0 0 0 0 0 0 0 0 0 0 0 0 -230 -226 -141 -172 -217 -218 -217 -234 -23 0 0 0 0
0 0 0 0 0 0 0 0 0 0 0 0 0 0 0 0 0 0 0 0 0 0 0 0 0 0 0 0 0 0 0 -193 -220 -165 -109 -167 -199 -211 -214 -209 -235 0 0 0
0 0 0 0 0 0 0 0 0 0 0 0 0 0 0 0 0 0 0 0 0 0 0 0 0 0 0 0 0 0 0 0 -38 -304 -185 -104 -100 -143 -156 -168 -176 -213 -187 0
0 0 0 0 0 0 0 0 0 0 0 0 0 0 0 0 0 0 0 0 0 0 0 0 0 0 0 0 0 0 0 0 0 0 0 0 -340 -164 -91 -126 -141 -136 -141 -198
0 0 0 0 0 0 0 0 0 0 0 0 0 0 0 0 0 0 0 0 0 0 0 0 0 0 0 0 0 0 0 0 0 0 0 0 0 -274 -299 -117 -54 -96 -86 -99
0 0 0 0 0 0 0 0 0 0 0 0 0 0 0 0 0 0 0 0 0 0 0 0 0 0 0 0 0 0 0 0 0 0 0 0 0 0 -68 -302 -243 -101 -26 -58
0 0 0 0 0 0 0 0 0 0 0 0 0 0 0 0 0 0 0 0 0 0 0 0 0 0 0 0 0 0 0 0 0 0 0 0 0 0 0 0 -319 -238 -103 -55
0 0 0 0 0 0 0 0 0 0 0 0 -1 -1 0 0 -1 -1 0 0 0 0 0 0 0 0 0 0 0 0 0 0 0 0 0 0 0 0 0 0 0 -293 -88 -40
0 0 0 0 0 0 0 0 0 0 0 -7 -8 -4 -3 -2 -1 -1 0 0 0 0 0 0 0 0 0 0 0 0 0 0 0 0 0 0 0 0 0 0 0 -364 -282 -53
0 0 0 0 0 0 0 0 0 0 0 0 -6 -6 -14 -1 -1 0 0 0 -8 -1 0 0 0 0 0 0 0 0 0 0 0 0 0 0 0 0 0 0 0 0 -201 -307
Wind_Speed
16 17 19 18 17 18 15 13 15 16 17 21 22 23 12 2 4 4 23 28 22 26 21 21 20 19 35 36 35 36 34 33 33 31 28 25 25 24 23 22 22 22 21 20
17 23 18 17 18 18 18 16 18 19 15 17 17 19 16 4 7 6 8 20 22 20 22 29 21 20 29 35 37 37 36 33 32 31 29 25 25 25 24 23 22 22 22 21
20 21 18 19 18 18 19 19 18 19 19 15 13 18 16 9 11 12 10 7 4 17 19 22 25 20 20 33 29 37 36 33 30 31 22 15 13 18 25 25 24 23 22 22
19 17 18 20 22 18 21 17 18 19 19 19 16 17 19 9 5 11 29 24 16 33 15 17 19 19 16 32 36 27 39 35 30 29 24 20 25 28 27 26 25 24 23 23
19 19 20 23 22 18 18 14 16 18 19 19 19 16 16 16 26 32 29 31 35 32 12 13 15 17 19 15 38 32 20 37 32 27 26 23 26 29 27 26 26 25 24 23
17 16 18 21 22 20 13 14 14 15 17 21 18 16 15 16 21 25 32 34 37 21 29 18 16 16 20 13 17 32 20 37 36 28 29 29 27 31 30 28 27 26 25 24
18 18 17 16 18 16 18 16 20 23 23 23 17 15 14 18 19 22 28 29 25 37 15 19 14 20 19 20 14 19 29 40 41 31 29 32 28 26 31 31 30 28 26 25
20 23 19 17 19 19 18 19 21 25 25 21 18 18 16 17 18 19 19 24 15 27 28 30 17 15 21 25 22 26 29 41 32 18 35 33 34 29 29 33 31 30 29 27
18 19 18 17 14 19 19 21 19 14 17 19 21 20 19 22 20 20 20 18 22 20 40 34 23 14 24 28 25 22 34 35 28 15 27 38 36 35 33 30 32 29 30 29
15 17 16 17 16 15 17 17 21 20 24 24 21 21 24 24 24 24 24 23 23 27 32 29 21 14 17 23 20 19 22 35 22 24 16 13 38 39 39 22 11 33 30 29
14 16 18 15 14 17 19 21 18 18 21 27 26 25 20 23 23 24 25 26 27 27 31 26 22 24 23 25 15 16 20 17 21 24 32 24 26 32 39 37 13 9 28 28
15 14 17 14 16 15 11 17 20 26 26 24 24 25 19 21 22 23 24 25 24 20 20 22 22 20 22 25 28 19 16 18 29 23 25 32 32 28 37 42 12 11 9 28
15 16 19 21 22 18 17 18 16 17 21 27 28 26 19 21 21 22 22 22 21 19 16 16 18 20 20 25 30 31 28 28 29 29 28 30 33 35 38 41 32 19 12 13
14 16 21 25 21 18 20 20 19 20 26 25 28 26 24 22 22 22 22 21 20 19 17 16 16 16 16 20 25 30 31 29 28 24 30 31 33 36 37 34 31 30 26 20
16 19 17 16 17 19 20 21 22 24 24 27 25 28 25 24 23 22 22 21 20 20 19 18 19 19 19 19 22 25 27 26 25 24 24 31 33 36 37 36 37 34 31 29
17 15 14 17 18 20 23 25 24 25 27 29 28 30 25 23 23 23 22 22 22 21 21 20 21 21 22 23 24 23 25 26 23 27 26 29 30 31 33 35 35 35 37 34
18 16 18 20 19 19 22 19 21 23 24 27 33 29 28 28 27 26 25 23 23 23 23 23 23 24 25 26 27 28 29 29 29 31 33 30 29 31 30 32 31 32 33 33
17 18 20 22 21 26 18 17 20 21 22 24 25 25 27 30 32 28 26 28 27 27 26 25 25 25 25 26 27 29 28 28 31 33 35 30 30 32 29 30 31 31 32 32
18 17 19 21 21 22 22 20 22 24 27 24 25 27 28 32 33 31 28 30 31 31 30 29 28 28 27 27 28 27 27 25 25 29 30 30 31 33 32 32 33 34 32 32
15 15 18 19 23 27 19 18 21 23 33 25 26 29 31 33 38 35 35 37 36 35 34 34 32 31 29 28 28 28 27 25 26 28 31 31 31 32 32 29 28 29 32 34
16 18 20 20 23 24 21 23 21 28 29 24 26 28 31 35 36 41 40 41 40 39 38 37 36 34 33 30 29 29 29 28 27 28 30 31 33 33 32 30 30 29 28 30
15 15 18 18 22 28 18 20 24 25 26 29 30 32 34 34 39 41 44 43 42 44 42 40 40 39 36 33 31 31 31 30 29 28 27 29 31 32 32 32 33 33 33 32
13 13 15 14 16 15 17 22 22 23 27 30 32 34 36 38 38 42 45 47 46 45 46 44 43 43 40 36 34 35 33 32 31 30 26 27 29 31 32 36 36 36 36 34
11 10 12 16 15 15 13 16 15 16 23 27 30 34 36 40 40 41 46 48 50 48 48 47 47 47 45 41 38 38 36 35 35 34 32 32 31 30 31 35 34 39 40 37
6 7 6 9 12 12 12 10 12 13 16 20 23 28 33 38 40 43 47 46 49 52 50 49 51 51 50 45 43 39 37 36 37 36 36 34 33 32 33 35 38 39 40 40
3 7 5 10 11 13 14 8 9 15 20 20 22 28 33 37 38 42 46 45 47 49 49 51 51 53 52 49 45 41 39 38 38 38 37 36 35 32 37 37 39 38 41 44
Wind_Direction
247 251 246 251 258 261 267 272 269 279 277 264 264 259 275 321 355 71 145 156 150 160 152 155 155 153 170 190 179 180 171 174 175 189 169 168 176 175 171 167 174 175 177 169
250 248 250 258 262 262 263 266 269 275 285 288 283 279 284 260 280 302 119 153 156 156 162 165 159 158 164 172 180 192 183 174 175 178 174 166 165 177 175 177 182 184 175 170
247 257 250 257 260 261 263 262 266 267 278 295 298 283 283 283 277 282 288 260 188 161 166 166 164 162 165 174 168 184 182 176 171 175 152 251 259 241 198 192 192 186 182 178
257 259 248 256 256 262 261 265 265 269 271 270 285 282 276 285 285 180 216 254 160 210 171 177 172 169 171 178 181 169 194 182 170 165 153 147 160 184 196 190 194 189 188 182
256 248 255 253 256 259 264 270 262 270 272 272 273 278 287 277 251 216 197 199 216 191 233 210 193 183 174 178 185 177 169 185 174 164 163 157 166 191 197 201 196 193 194 192
258 267 265 259 257 253 271 270 271 273 271 264 269 270 283 282 273 269 252 216 207 181 243 244 191 193 179 186 180 181 171 184 185 170 173 173 168 188 207 207 208 203 207 206
260 265 269 270 256 258 258 258 256 256 256 259 264 266 285 289 290 282 256 214 189 200 234 246 203 183 184 177 195 178 176 192 199 179 179 186 177 172 188 201 206 209 209 205
251 253 264 277 259 256 255 252 257 256 251 250 262 259 272 297 296 308 314 253 249 182 189 241 246 194 182 180 180 178 180 198 237 182 193 192 193 182 184 207 217 212 206 205
252 257 274 278 287 259 255 253 260 270 265 249 256 266 268 293 299 308 314 308 269 268 221 241 247 199 182 182 182 183 185 187 243 226 246 208 201 198 191 188 226 230 222 219
269 252 279 278 277 284 260 262 251 257 249 250 255 260 267 283 287 292 298 300 286 261 242 249 247 212 191 186 192 191 193 191 190 245 239 209 206 212 212 178 210 235 239 234
275 268 269 275 280 272 261 257 262 256 259 251 252 258 286 287 289 292 295 297 292 271 245 255 255 249 246 243 216 209 193 221 242 249 248 253 256 247 230 205 187 227 252 253
288 277 265 261 275 288 295 271 261 250 252 258 260 260 295 297 298 298 299 307 311 302 270 262 258 253 250 248 246 241 224 236 250 250 251 251 252 255 242 222 231 234 216 258
282 275 262 262 268 280 276 281 275 265 259 256 255 259 292 301 304 307 306 312 322 321 307 282 270 263 258 255 251 250 252 253 253 253 253 254 252 252 247 242 256 258 239 253
295 283 273 263 266 270 269 275 276 268 258 257 260 263 276 292 301 305 311 318 324 327 321 300 288 282 278 270 264 256 255 256 256 256 255 255 254 254 254 256 259 259 260 259
297 283 283 280 278 276 273 272 273 268 268 262 263 266 275 284 293 302 306 312 316 320 321 312 300 293 287 284 276 266 260 258 258 259 258 257 257 256 255 256 255 258 260 260
296 286 288 282 282 280 275 273 271 270 270 269 272 270 282 287 291 296 303 305 306 310 310 311 306 302 294 285 279 279 271 267 267 260 257 258 258 258 257 257 258 259 258 260
289 285 285 280 287 286 275 278 273 273 275 275 271 277 282 282 287 289 291 299 299 300 304 307 305 303 298 288 286 278 275 274 270 263 259 260 259 259 259 259 259 259 260 261
291 288 285 278 283 270 280 291 290 284 284 283 283 284 287 285 284 283 290 288 291 292 295 300 303 302 302 297 292 285 283 281 271 265 259 262 260 258 261 261 260 261 261 261
292 290 287 282 279 284 281 289 292 288 284 289 287 289 292 291 287 277 288 291 287 285 287 290 295 299 300 300 298 294 286 291 284 271 268 268 264 260 262 262 261 261 262 263
306 298 287 288 282 279 292 296 304 297 283 295 293 291 292 294 279 278 283 287 285 284 283 284 288 290 294 300 301 291 290 293 286 279 272 271 268 265 262 263 265 265 263 263
297 292 286 288 288 292 296 298 308 288 292 305 301 297 298 290 287 286 289 283 282 280 280 280 282 282 286 292 298 291 287 287 293 285 278 272 268 266 266 267 266 266 267 266
303 299 292 293 292 290 311 308 294 301 304 301 298 296 295 297 294 291 286 283 282 278 278 277 277 278 281 284 287 287 285 287 288 290 287 278 273 268 267 267 267 266 265 266
325 320 316 316 318 330 337 323 320 313 305 302 300 300 297 296 299 292 286 283 281 278 276 276 274 274 276 277 279 281 282 284 283 283 293 285 276 269 267 265 265 264 264 266
356 354 344 325 330 338 13 360 3 350 325 312 305 302 301 296 298 299 290 281 277 277 274 274 272 270 270 273 274 275 280 281 279 280 285 283 280 279 278 270 270 265 262 266
29 41 39 342 331 338 350 20 19 11 359 347 332 318 310 302 296 297 292 288 282 275 275 273 269 267 266 271 271 273 277 278 276 277 281 277 282 280 282 275 267 269 268 265
334 329 338 337 342 341 340 2 12 356 346 345 340 329 322 312 304 300 293 291 285 279 278 274 269 266 265 266 268 272 274 276 276 275 277 282 282 285 273 275 274 274 271 267